Regional Weather Roundup
Issued by NWS Upton, NY

Current Version | Previous Version | Graphics & Text | Print | Product List | Glossary Off
Versions: 1 2 3 4 5 6 7 8 9 10 11 12 13 14 15 16 17 18 19 20 21 22 23 24 25 26 27 28 29 30 31 32 33 34 35 36 37 38 39 40 41 42 43 44 45 46 47 48 49 50

955
ASUS41 KOKX 211908
RWROKX

REGIONAL WEATHER ROUNDUP
NATIONAL WEATHER SERVICE NEW YORK NY
300 PM EDT THU MAY 21 2015

NOTE: "FAIR" INDICATES FEW OR NO CLOUDS BELOW 12,000 FEET WITH NO
SIGNIFICANT WEATHER AND/OR OBSTRUCTIONS TO VISIBILITY.

NYZ071-072-176-178-NJZ106-104-212000-
NEW YORK CITY METRO AREA


CITY           SKY/WX    TMP DP  RH WIND       PRES   REMARKS
CENTRAL PARK   PTSUNNY   60  39  45 MISG      29.97F
LAGUARDIA APRT PTSUNNY   60  33  36 S10       29.95F
KENNEDY INTL   PTSUNNY   58  36  43 S12       29.97F
NEWARK/LIBERTY CLOUDY    59  40  49 S9        29.95F
BRNX BOT. GARD   N/A     61  34  36 S8        29.96R
TETERBORO      PTSUNNY   62  36  37 S13       29.93F
$$

NYZ177-179-078>081-212000-
LONG ISLAND NEW YORK

CITY           SKY/WX    TMP DP  RH WIND       PRES   REMARKS
FARMINGDALE    PTSUNNY   57  37  47 SW13      29.96F
ISLIP          CLOUDY    58  35  42 SW13      29.95F
SHIRLEY        CLOUDY    58  34  40 S14       29.97F
WESTHAMPTON    PTSUNNY   56  34  43 SW12      29.98F
MONTAUK POINT    N/A     58  39  49 S7        29.97F
$$

NYZ052-065-067-212000-
HUDSON VALLEY

CITY           SKY/WX    TMP DP  RH WIND       PRES   REMARKS
WHITE PLAINS   CLOUDY    59  33  37 S12G17    29.93F
NEWBURGH       PTSUNNY   63  39  42 W9        29.93F
MONTGOMERY     CLOUDY    63  37  38 S8        29.91F
POUGHKEEPSIE   CLOUDY    64  33  31 SW10      29.90F
ALBANY         MOSUNNY   67  36  31 S9        29.88F
$$

NJZ001-105-106-008-010-013-015-019>022-104-212000-
NEW JERSEY

CITY           SKY/WX    TMP DP  RH WIND       PRES   REMARKS
NEWARK/LIBERTY CLOUDY    59  40  49 S9        29.95F
TETERBORO      PTSUNNY   62  36  37 S13       29.93F
CALDWELL       PTSUNNY   60  34  37 W8        29.94F
MORRISTOWN     CLOUDY    63  43  48 SW13      29.95F
SOMERVILLE     NOT AVBL
SUSSEX         CLOUDY    61  33  35 SW8       29.93F
ANDOVER          N/A     59  34  39 SW9       29.94F
TRENTON        CLOUDY    54  46  74 W6        29.96F
MILLVILLE      LGT RAIN  52  48  86 W3        29.97F FOG
ATLANTIC CITY  NOT AVBL
WRIGHTSTOWN    LGT RAIN  54  50  87 W2        29.94F
TOMS RIVER     CLOUDY    54  48  82 S3        29.97F
BELMAR         CLOUDY    54  43  66 S5        29.97F
$$

PAZ047>061-062-071-212000-
EASTERN PENNSYLVANIA

CITY           SKY/WX    TMP DP  RH WIND       PRES   REMARKS
PHILADELPHIA   LGT RAIN  52  44  74 SW7       29.98F
ALLENTOWN      CLOUDY    59  38  45 VRB5      29.95F
SCRANTON       CLOUDY    60  35  39 W8        29.91F
$$

CTZ002-004>006-009-010-012-RIZ004-006-007-MAZ004-011-015-212000-
SOUTHERN NEW ENGLAND
 IN CT

CITY           SKY/WX    TMP DP  RH WIND       PRES   REMARKS
BRADLEY INTL   PTSUNNY   68  35  29 S9        29.88F
HARTFORD       SUNNY     66  34  30 S8        29.90F
DANBURY        CLOUDY    62  32  32 SW6       29.93F
WTRBRY/OXFORD  NOT AVBL
BRIDGEPORT     PTSUNNY   63  35  35 SW10      29.94F
MERIDEN        PTSUNNY   64  33  31 S13       29.92F
NEW HAVEN      PTSUNNY   61  35  37 SW8       29.94F
CHESTER        FAIR      63  30  29 S12G18    29.94F
GROTON         PTSUNNY   58  41  53 SW10      29.94F
WILLIMANTIC    SUNNY     67  30  25 W9G21     29.91F

 IN RI

CITY           SKY/WX    TMP DP  RH WIND       PRES   REMARKS
PROVIDENCE     PTSUNNY   63  38  39 SE17      29.91F
BLOCK ISLAND   CLOUDY    57  39  51 SW13      29.97F
WESTERLY       CLOUDY    59  38  45 SW12G20   29.95F

 IN MA

CITY           SKY/WX    TMP DP  RH WIND       PRES   REMARKS
BOSTON         PTSUNNY   63  39  41 SE8       29.89F
WORCESTER      CLOUDY    63  28  26 W10       29.89F
WESTFIELD      CLOUDY    67  27  22 VRB5      29.88F
PROVINCETOWN   PTSUNNY   63  39  42 S13G18    29.92F
NANTUCKET      MOSUNNY   57  45  64 SW14      29.96F
$$

ANZ330-335-338-340-345-350-353-355-212000-
COASTAL MARINE OBSERVATIONS


STATION/POSITION TIME  SKY/WX   TEMP    WIND        PRES    VSBY  WAVE
                                AIR SEA DIR/SP/G                  HT/PER
                 (UTC)          (F)     (DEG/KT/KT) (MB)    (MI)  (FT/S)
NY HARB ENTRANCE 1850            54 56  210/  8/ 12 1014.7          1/ 9
4S FIRE IS       1803               53                N/A           1/ 8
20S FIRE ISLAND  1850            53 55  210/  6/  8 1015.0          1/ 9
GREAT SOUTH BAY  1815            55 64  230/ 12/ 14   N/A
23SW MTP         1850            54 54  220/ 10/ 12 1014.8          1/ 9
HUDSON CANYON    NOT AVBL
KINGS POINT      1800            58 53  220/ 10/ 12 1014.1
CENTRAL LI SOUND NOT AVBL
EASTERN LI SOUND 1800            54     230/  6/  6   N/A
ROBBINS REEF     1800            56     160/ 13/ 14 1013.6
$$


>>>>>>>>>>>>>>>>>>>>>>>>>>>> KEY <<<<<<<<<<<<<<<<<<<<<<<<<<<
>                                                          <
>     SKY/WX - SKY CONDITION/PRESENT WEATHER               <
>     TMP    - TEMPERATURE IN FAHRENHEIT                   <
>     DP     - DEWPOINT IN FAHRENHEIT                      <
>     RH     - RELATIVE HUMIDITY IN PERCENT                <
>     WIND   - DIRECTION AND SPEED IN MPH                  <
>     PRES   - MEAN SEA LEVEL PRESSURE IN INCHES OF HG     <
>     WCI    - WIND CHILL INDEX                            <
>     VSB    - VISIBILITY IN MILES                         <
>     HX     - HEAT INDEX                                  <
>     TC     - TEMPERATURE IN CELSIUS                      <
>     VRB    - VARIABLE WIND DIRECTION                     <
>                                                          <
>>>>>>>>>>>>>>>>>>>>>>>>>>>> KEY <<<<<<<<<<<<<<<<<<<<<<<<<<<





USA.gov is the U.S. government's official web portal to all federal, state and local government web resources and services.